User: anonymous   Login
Location: Unspecified
(0.0000°N, 0.0000°E)
Time: 02:49:15
(UTC+00:00)
Language:

JAS-1B - Orbit

View from above orbital plane
View from above orbital plane
View from above satellite
View from above satellite

Ground track
Ground track

The orbit data is extracted from the following two-line orbital elements,

1 20480U 90013C   17232.24691606 -.00000025  00000-0  24726-4 0  9999
2 20480  99.0646 353.4563 0539457 245.8910 108.4876 12.83416503289939
Epoch (UTC): 20 August 2017 05:55:33
Eccentricity: 0.0539457
inclination: 99.0646°
perigee height: 912 km
apogee height: 1743 km
right ascension of ascending node: 353.4563°
argument of perigee: 245.8910°
revolutions per day: 12.83416503
mean anomaly at epoch: 108.4876°
orbit number at epoch: 28993

The dashed part of the orbit path shows where the satellite is in the earth's shadow,  

DLR